星链-5934 (STARLINK-5934 )

导读

STARLINK-5934是美国太空探索技术公司(SpaceX)“星链”卫星互联网项目的组网卫星,于2023年3月24日发射入轨,属于星链星座扩容任务的一部分。它将在近地轨道运行,为全球除偏远地区外的用户提供高速低延迟的卫星互联网接入服务,进一步完善星链全球覆盖网络。

Basic Information
目录编号:
56017
目录名称:
STARLINK-5934
国际标识:
2023-042AH
轨道中心:
EARTH
卫星名称:
星链-5934
卫星全名:
星链-5934 (STARLINK-5934 )
卫星状态:
在轨 (已飞行1179 天)
发射日期:
2023-03-24 UTC
国别 :
美国 (US)
星等 :
--
Orbit Information
数据来源 国际轨道数据 AOE轨道数据
星历时间 2026-06-15T04:24:22+0800
5小时前
查看轨道信息
2026-06-15T07:00:00+0800
3小时前
查看轨道信息
半长轴 6861.186km 6861.144km
偏心率 0.0001286 0.0000487
轨道倾角 43.007° 43.008°
近地点辐角 303.111° 46.684°
升交点赤经 216.632° 216.038°
平近点角 56.962° 188.352°
近地点 482.166km 482.672km
远地点 483.932km 483.342km
周期 94.267分钟 94.266分钟
每日圈数 15.275802 15.275941
Detailed Information
固有亮度:
5
最大亮度:
2.5
卫星平台:
Starlink v1.5
覆盖范围:
全球
运营商:
太空探索技术公司
运营商所在国:
美国
制造商(研发单位):
太空探索技术公司
制造商所在国:
美国
使用方式:
暂无
Satellite Introduction
星链(Starlink)计划是由太空探索技术公司(SpaceX)提出的一个巨型低轨卫星互联网星座项目,计划在2019年至2024年间在太空搭建由约1.2万颗卫星组成的“星链”网络,其中1584颗将部署在地球上空550千米处的近地轨道,并从2020年开始工作。该卫星仍在工作。
2D Orbit Map
3D Orbit Map
Orbit Altitude Analysis Chart
Orbit Inclination Analysis Chart
Orbit Comprehensive Analysis Chart
View Comprehensive Chart